Wind_Speed
3 3 3 4 4 4 4 4 4 5 6 6 6 7 7 7 7 6 6 7 7 7 7 7 7 7 6 6 6 6 7 7 7 7 8 8 8 9 9 10 11 12 12
3 3 3 4 4 4 4 4 4 5 6 6 6 6 7 7 8 8 7 7 8 8 8 8 8 8 7 7 7 7 7 8 8 8 8 8 9 9 10 10 11 12 12
4 4 3 4 4 5 4 5 5 5 5 6 6 6 7 8 8 9 8 8 8 8 9 9 8 8 8 8 8 9 9 9 9 8 8 8 8 9 10 10 11 12 13
4 4 3 4 4 4 4 5 5 5 6 6 6 6 7 7 8 9 9 9 9 9 9 9 9 9 9 9 9 9 9 9 9 9 9 9 9 10 10 10 11 12 12
4 4 4 4 4 4 4 4 4 5 6 6 6 7 7 7 8 8 10 10 10 10 10 10 10 10 9 9 9 9 9 10 10 9 9 9 10 10 10 10 11 11 10
4 4 5 5 4 5 4 4 4 5 6 6 6 7 8 8 8 9 10 10 11 11 11 11 10 10 10 10 10 10 10 10 10 10 10 10 9 10 10 10 11 11 11
4 4 4 4 4 5 5 4 5 6 6 6 7 8 8 8 9 9 9 10 11 11 11 11 11 10 10 10 10 10 10 9 9 9 10 10 10 10 10 11 11 11 11
4 4 4 4 4 5 5 5 6 6 7 7 7 8 8 9 10 10 10 11 11 11 11 12 11 11 10 10 10 9 10 9 9 9 9 9 10 10 11 11 10 10 11
6 6 6 6 5 5 5 6 7 7 7 8 8 9 10 10 10 11 11 11 11 11 11 12 12 12 11 10 10 10 10 10 10 9 10 10 10 10 11 11 10 10 11
6 6 6 6 6 6 6 7 8 8 8 9 9 10 10 11 11 11 12 12 11 12 12 12 13 13 12 11 10 10 10 10 10 10 10 11 11 11 12 12 11 11 11
6 6 6 6 6 7 7 7 8 8 9 9 10 10 11 12 12 13 13 13 13 13 13 13 13 13 13 12 12 11 11 11 11 11 11 11 12 12 13 13 12 12 12
6 6 5 6 6 6 7 7 8 8 9 9 10 11 11 12 12 13 14 14 14 14 13 13 13 13 13 13 13 13 13 12 12 12 12 12 13 13 13 13 14 14 14
6 6 6 6 6 7 7 8 8 9 9 10 11 11 12 12 13 13 14 14 14 14 14 14 15 15 14 15 14 14 14 14 13 13 13 14 14 14 14 15 15 15 15
8 7 7 7 7 7 8 8 8 9 10 11 11 12 12 13 13 14 15 15 15 15 15 15 14 15 15 15 14 14 14 14 14 14 14 15 15 15 15 16 16 16 16
9 9 8 9 9 9 9 9 10 11 11 11 12 12 13 14 14 15 16 16 16 16 15 15 15 15 15 16 16 16 16 15 15 15 15 15 16 16 16 16 16 16 16
10 9 10 10 10 10 10 10 11 12 12 13 13 14 14 15 15 16 17 17 18 17 17 16 16 16 16 17 17 17 17 17 17 18 17 17 17 17 17 18 17 18 17
10 10 11 11 12 12 12 12 12 13 14 14 15 15 16 17 17 18 18 18 19 19 19 19 18 18 18 18 18 18 18 19 20 20 20 20 20 19 19 19 19 19 19
11 11 12 12 13 13 13 13 14 14 15 16 16 17 18 18 18 19 19 20 20 20 20 20 20 20 19 19 20 20 20 20 21 21 21 21 21 21 21 21 20 20 21
13 13 13 14 14 14 14 14 15 16 17 17 18 18 19 19 20 20 21 21 21 21 22 21 21 21 21 21 21 21 22 22 22 22 22 22 22 23 23 22 22 21 21
14 14 14 15 15 15 15 16 17 17 18 18 19 19 20 21 21 22 22 22 23 23 23 23 24 24 23 23 23 24 24 24 24 24 24 24 24 24 24 24 23 23 24
16 15 16 16 16 16 17 18 18 18 19 20 20 21 21 22 23 24 24 25 25 25 25 26 26 26 26 26 26 27 26 26 26 26 26 26 25 25 25 25 25 24 25
17 17 17 18 18 19 19 20 20 20 21 21 22 23 23 23 24 25 26 26 27 27 27 28 28 28 28 28 29 29 29 28 28 28 28 27 27 27 27 27 26 26 26
19 19 19 19 20 21 21 21 21 22 22 23 24 24 24 25 25 26 27 28 29 29 29 30 30 31 31 31 31 31 30 30 30 30 29 29 29 28 29 29 29 29 28
21 21 21 22 22 23 23 24 24 23 24 25 25 25 26 27 27 28 29 30 31 31 32 33 33 33 33 32 33 33 33 33 33 32 32 32 31 31 31 31 30 29 29
24 24 24 24 25 25 25 25 25 25 25 26 27 27 28 29 29 30 31 32 33 33 34 34 34 35 35 34 34 34 34 34 34 33 34 34 33 33 33 32 31 31 31
27 27 26 27 27 27 26 26 27 27 27 28 28 29 29 30 31 32 33 33 33 34 35 35 35 35 35 35 35 35 34 34 35 35 34 35 35 35 33 32 32 33 33
Wind_Direction
103 94 65 57 50 43 40 34 31 39 41 33 28 24 24 17 18 18 15 8 2 358 350 344 337 331 328 321 316 311 309 309 301 294 293 290 287 286 288 278 270 267 269
89 84 68 54 47 40 35 35 30 36 34 29 23 19 14 11 13 11 4 3 359 353 345 340 338 332 327 325 317 310 305 306 305 299 296 293 293 291 291 286 274 268 266
82 82 68 61 47 35 35 37 29 28 20 18 15 12 11 9 11 8 2 356 353 350 347 345 340 336 331 327 322 314 310 308 306 300 298 299 299 296 294 290 281 274 270
69 65 59 49 34 31 35 35 23 19 16 11 10 7 4 2 4 6 2 355 351 347 345 345 343 338 333 329 326 320 314 310 307 306 303 301 302 299 297 295 288 281 273
59 49 42 39 30 26 28 30 24 14 9 9 7 3 0 358 358 358 358 356 350 344 342 342 341 337 334 328 326 321 317 314 309 309 309 306 305 307 304 300 294 287 277
53 47 41 40 37 29 28 14 5 0 1 2 0 356 356 353 354 352 352 351 350 347 343 341 340 338 336 333 328 324 321 314 311 312 314 312 311 311 307 304 300 293 285
45 41 34 31 24 19 19 4 352 353 351 352 349 350 355 355 356 352 350 349 349 348 346 343 339 337 336 334 332 328 326 324 322 319 317 316 312 311 307 305 301 296 287
31 25 19 14 10 14 7 358 353 353 359 355 351 352 352 353 356 354 352 351 350 350 352 349 344 341 338 335 331 327 327 326 320 318 318 320 319 317 313 309 304 299 290
33 29 28 25 22 16 13 10 5 1 358 355 351 354 358 357 355 353 352 351 350 351 352 352 350 346 343 337 332 326 325 322 317 315 313 312 313 314 315 313 306 301 292
32 26 25 26 24 18 13 11 11 10 5 1 360 358 358 356 356 352 349 347 345 345 345 349 352 349 346 340 333 327 325 324 319 315 312 310 309 309 309 308 305 302 294
22 19 19 16 16 13 9 5 3 2 1 360 360 358 355 352 350 349 350 349 347 346 344 347 349 350 351 348 341 331 324 322 317 313 311 309 306 306 306 305 302 300 295
4 3 6 6 4 2 358 353 351 349 349 350 351 350 350 350 349 349 349 347 345 344 340 341 343 342 346 348 345 341 334 326 319 314 310 309 307 306 304 302 299 297 294
347 347 347 347 346 347 347 344 343 344 344 343 344 346 345 344 344 343 343 341 339 338 338 338 339 338 341 341 337 337 336 331 322 316 312 310 308 305 303 301 299 298 294
334 334 333 332 332 331 333 334 336 337 337 337 336 338 339 338 337 337 337 336 336 335 335 334 337 336 334 332 328 330 330 328 322 318 315 313 311 307 303 301 298 297 292
324 325 325 324 324 322 323 326 326 328 330 331 331 329 330 331 332 333 333 334 334 334 332 330 330 331 329 328 329 328 328 326 322 319 314 311 310 307 305 304 298 295 295
315 317 316 316 315 313 310 315 317 319 322 324 326 325 324 324 326 327 327 328 329 330 330 328 326 327 327 325 326 324 323 321 320 316 315 313 311 308 306 305 302 300 296
308 308 311 310 311 312 311 311 310 312 315 317 319 320 320 322 324 324 325 325 325 326 326 326 322 320 320 320 321 321 320 318 317 316 315 313 311 308 308 307 306 302 299
304 303 306 309 309 308 308 309 311 311 312 314 315 317 318 319 319 319 319 319 320 321 320 320 321 319 317 316 315 315 315 314 314 313 312 311 310 308 306 302 301 300 299
295 295 299 302 304 303 303 305 307 309 312 314 315 315 315 315 316 315 316 315 314 314 313 313 315 316 315 314 314 314 314 313 312 309 309 308 308 309 308 305 301 298 298
290 291 294 297 299 300 301 302 305 307 309 311 313 313 312 312 312 313 312 311 310 310 309 309 310 311 311 310 309 310 310 310 310 309 308 307 307 306 306 305 302 300 297
290 290 293 295 298 300 300 301 303 305 306 307 309 310 310 310 311 310 309 308 308 307 307 306 306 307 308 307 306 306 306 307 306 306 306 305 306 307 306 302 299 299 298
291 290 290 293 295 298 298 298 300 302 303 304 306 307 308 308 308 307 307 308 307 306 306 305 304 305 305 304 304 304 304 304 303 303 304 303 303 304 305 301 298 295 294
291 290 291 292 294 295 296 296 298 300 301 302 304 306 307 307 306 306 306 305 305 305 305 304 303 303 303 302 302 302 302 302 302 301 301 303 303 302 301 300 297 294 292
293 294 295 294 295 295 295 297 299 300 301 302 303 304 304 304 303 304 304 304 304 304 304 303 302 301 300 300 300 300 299 299 299 299 299 299 300 300 300 299 298 295 293
294 294 295 294 296 297 297 297 298 300 301 301 301 302 304 304 303 303 303 303 303 303 303 302 300 299 299 298 299 298 298 298 298 297 297 297 297 297 297 297 295 295 294
292 292 293 292 292 293 295 296 298 299 300 300 300 301 302 302 303 303 304 304 303 302 301 301 301 300 300 298 298 297 297 297 297 296 296 295 295 295 294 294 293 293 293
Height
5899 5899 5900 5900 5900 5900 5899 5899 5898 5898 5897 5897 5896 5896 5895 5895 5894 5893 5892 5892 5891 5890 5890 5889 5888 5887 5886 5885 5885 5884 5883 5883 5882 5882 5882 5882 5881 5881 5881 5881 5881 5882 5882
5900 5900 5900 5901 5900 5900 5900 5900 5899 5898 5898 5897 5897 5896 5896 5895 5894 5893 5893 5892 5891 5890 5889 5888 5887 5886 5885 5884 5883 5883 5882 5881 5881 5880 5880 5880 5879 5879 5879 5879 5879 5879 5879
5901 5901 5901 5901 5902 5901 5901 5900 5900 5899 5899 5898 5897 5897 5896 5895 5894 5893 5892 5891 5891 5890 5889 5887 5886 5885 5884 5883 5882 5881 5880 5880 5879 5878 5878 5878 5878 5877 5877 5876 5876 5875 5875
5902 5902 5902 5902 5902 5902 5902 5901 5900 5900 5899 5899 5898 5897 5897 5896 5894 5893 5893 5892 5891 5889 5888 5887 5885 5884 5883 5881 5880 5880 5879 5878 5877 5877 5876 5876 5876 5875 5875 5874 5873 5872 5872
5903 5903 5903 5903 5902 5902 5902 5902 5901 5901 5900 5899 5898 5898 5897 5896 5895 5893 5892 5891 5890 5889 5887 5886 5884 5883 5882 5881 5879 5878 5877 5876 5875 5875 5875 5874 5874 5873 5872 5872 5871 5870 5869
5904 5904 5904 5904 5904 5904 5903 5902 5902 5901 5901 5900 5899 5898 5897 5896 5895 5894 5892 5891 5890 5889 5887 5885 5884 5882 5881 5879 5878 5877 5876 5875 5874 5874 5873 5872 5872 5871 5870 5869 5868 5867 5867
5905 5905 5905 5905 5904 5904 5904 5903 5902 5902 5901 5900 5899 5898 5897 5896 5895 5894 5893 5891 5890 5888 5886 5885 5883 5881 5880 5878 5877 5876 5874 5873 5873 5872 5871 5870 5870 5869 5868 5867 5866 5865 5865
5906 5906 5906 5905 5905 5905 5904 5904 5903 5902 5901 5900 5900 5899 5897 5897 5895 5893 5892 5891 5889 5887 5885 5884 5882 5880 5879 5877 5876 5875 5873 5872 5871 5870 5869 5869 5868 5867 5866 5865 5864 5863 5862
5907 5907 5906 5906 5906 5905 5905 5904 5903 5902 5901 5900 5899 5899 5897 5896 5894 5893 5892 5890 5888 5887 5885 5883 5881 5879 5878 5876 5875 5873 5872 5871 5869 5868 5867 5866 5866 5864 5863 5862 5861 5861 5860
5908 5908 5907 5907 5906 5906 5905 5905 5904 5903 5902 5900 5899 5898 5897 5895 5894 5893 5891 5890 5888 5886 5884 5882 5880 5879 5877 5875 5873 5872 5871 5869 5868 5866 5865 5864 5863 5862 5861 5860 5859 5858 5857
5909 5909 5908 5907 5907 5906 5905 5904 5904 5903 5902 5900 5899 5898 5897 5895 5893 5892 5890 5889 5887 5885 5883 5881 5880 5878 5876 5874 5872 5870 5869 5867 5866 5864 5863 5862 5861 5860 5858 5857 5856 5855 5854
5909 5909 5908 5908 5907 5906 5905 5904 5903 5902 5901 5900 5899 5898 5896 5894 5893 5891 5889 5888 5886 5884 5882 5880 5878 5875 5873 5873 5871 5869 5867 5865 5863 5862 5861 5859 5858 5857 5855 5854 5853 5852 5851
5909 5909 5908 5907 5907 5906 5905 5904 5903 5902 5901 5900 5898 5897 5895 5894 5892 5890 5888 5887 5885 5883 5881 5879 5877 5873 5870 5870 5869 5867 5865 5863 5861 5859 5858 5856 5855 5854 5852 5851 5849 5848 5847
5909 5908 5908 5907 5906 5905 5904 5903 5902 5901 5900 5899 5897 5896 5894 5892 5891 5889 5887 5885 5883 5881 5879 5877 5875 5873 5871 5868 5865 5864 5862 5860 5858 5857 5855 5853 5852 5850 5848 5847 5845 5844 5843
5908 5907 5906 5906 5905 5904 5903 5902 5901 5900 5899 5897 5896 5894 5893 5891 5889 5887 5885 5883 5881 5879 5877 5874 5872 5871 5869 5866 5863 5862 5860 5858 5856 5853 5851 5850 5848 5846 5844 5842 5841 5839 5838
5906 5905 5905 5904 5903 5902 5901 5900 5899 5898 5897 5895 5893 5892 5890 5889 5887 5885 5883 5881 5878 5876 5874 5872 5870 5868 5866 5863 5861 5859 5857 5854 5852 5849 5848 5846 5844 5842 5840 5839 5837 5835 5834
5904 5904 5903 5902 5901 5900 5899 5898 5897 5896 5894 5893 5891 5890 5888 5886 5884 5882 5880 5878 5876 5874 5872 5870 5867 5865 5863 5860 5858 5856 5854 5851 5848 5846 5844 5842 5840 5837 5836 5833 5831 5830 5828
5902 5901 5900 5899 5898 5897 5896 5895 5894 5893 5891 5890 5888 5887 5885 5883 5881 5879 5877 5875 5872 5870 5868 5866 5864 5861 5859 5856 5854 5852 5850 5847 5844 5842 5839 5837 5834 5832 5830 5828 5826 5824 5822
5899 5898 5897 5896 5895 5894 5893 5892 5891 5890 5888 5886 5885 5883 5881 5879 5877 5875 5873 5871 5868 5866 5864 5862 5860 5858 5855 5852 5849 5847 5844 5842 5839 5837 5834 5832 5829 5827 5824 5822 5820 5818 5816
5896 5895 5894 5893 5892 5890 5889 5888 5887 5886 5884 5883 5881 5879 5877 5875 5873 5870 5868 5866 5864 5861 5859 5856 5854 5852 5850 5847 5844 5841 5839 5836 5834 5831 5828 5826 5823 5821 5818 5816 5814 5812 5809
5892 5891 5890 5889 5888 5887 5885 5884 5883 5881 5880 5878 5876 5874 5872 5870 5868 5866 5863 5861 5858 5856 5853 5851 5848 5846 5844 5841 5838 5835 5832 5829 5827 5824 5822 5819 5817 5814 5811 5809 5806 5804 5802
5888 5887 5886 5885 5883 5882 5881 5880 5878 5877 5875 5873 5872 5870 5867 5865 5863 5860 5858 5855 5852 5849 5847 5844 5842 5839 5836 5833 5831 5828 5825 5823 5820 5818 5814 5812 5810 5807 5804 5801 5799 5796 5794
5883 5882 5881 5879 5878 5877 5875 5874 5873 5871 5869 5868 5866 5864 5862 5860 5857 5854 5851 5849 5846 5843 5840 5837 5834 5831 5828 5826 5823 5820 5817 5814 5812 5810 5807 5804 5802 5799 5796 5793 5791 5788 5786
5878 5876 5875 5874 5873 5872 5870 5869 5867 5865 5864 5862 5860 5858 5855 5853 5850 5848 5845 5842 5839 5836 5832 5829 5826 5823 5820 5817 5814 5811 5808 5806 5803 5801 5798 5796 5794 5791 5788 5785 5782 5779 5777
5872 5871 5870 5869 5868 5866 5864 5863 5861 5859 5857 5855 5853 5851 5848 5846 5843 5840 5837 5834 5831 5828 5824 5820 5817 5814 5811 5808 5805 5802 5799 5796 5794 5792 5789 5786 5784 5781 5779 5776 5773 5770 5768
5866 5865 5864 5863 5861 5859 5857 5856 5854 5852 5850 5848 5846 5843 5841 5838 5835 5832 5829 5826 5822 5819 5815 5811 5808 5805 5801 5798 5795 5792 5789 5786 5784 5782 5779 5776 5773 5771 5769 5767 5764 5761 5758